Simultaneous Nadir Overpasses (SNOs) Predictions

Prediction of SNOs between NOAA-19 and TERRA Satellite Orbit:

Table of predicted SNOs for the next 14.0 days since TLE Epoch: 11/23/2015
Index Date (NOAA-19) Time (NOAA-19) Lat,Lon (NOAA-19) SZA (NOAA-19 ) Date (TERRA) Time (TERRA) Lat,Lon (TERRA) SZA (TERRA ) Distance(km) Time Diff (sec)
1 11/23/2015 14:02:58 -72.79, 154.41 86.78 11/23/2015 14:03:32 -72.81, 154.38 86.76 2.39 34
2 11/23/2015 14:53:59 72.70, -38.16 93.15 11/23/2015 14:52:59 72.72, -38.15 93.15 2.07 60
3 11/25/2015 19:37:13 72.78,-109.09 93.66 11/25/2015 19:37:14 72.80,-109.07 93.67 1.77 1
4 11/25/2015 20:28:01 -72.17, 59.43 86.89 11/25/2015 20:26:52 -72.26, 57.55 86.90 64.44 69
5 11/28/2015 00:20:27 72.87, 179.96 94.14 11/28/2015 00:21:29 72.86, 179.99 94.15 1.21 62
6 11/28/2015 01:11:26 -72.78, -12.59 85.94 11/28/2015 01:10:59 -72.75, -12.60 85.98 2.95 27
7 11/30/2015 05:54:40 -72.84, -83.49 85.52 11/30/2015 05:55:13 -72.86, -83.45 85.49 2.85 33
8 11/30/2015 06:45:39 72.74, 83.96 94.41 11/30/2015 06:44:40 72.76, 84.00 94.42 2.33 59
9 12/02/2015 11:28:52 72.79, 13.10 94.79 12/02/2015 11:28:55 72.81, 13.02 94.80 2.91 3
10 12/02/2015 12:19:42 -72.19,-178.39 85.76 12/02/2015 12:18:33 -72.27, 179.66 85.77 66.64 69
11 12/04/2015 16:12:06 72.90, -57.88 95.19 12/04/2015 16:13:09 72.89, -57.87 95.20 0.58 63
12 12/04/2015 17:03:07 -72.81, 109.54 84.89 12/04/2015 17:02:39 -72.79, 109.55 84.92 3.00 28
13 12/06/2015 21:46:20 -72.84, 38.71 84.59 12/06/2015 21:46:53 -72.86, 38.64 84.57 3.18 33




NCC Satellite Simultaneous Nadir Overpasses (SNOs) Prediction Service
